Location: �perlecques
(50.8057°N, 2.1521°E)
Time: 13:01:19
(UTC+00:00)

Altair - All Passes

Search period start: 02 August 2021 00:00
Search period end: 12 August 2021 00:00
Orbit: 1502 x 1682 km, 47.2° (Epoch: 02 August)

Date Brightness Start Highest point End Pass type
(mag) Time Alt. Az. Time Alt. Az. Time Alt. Az.
02 Aug - 01:32:45 10° SW 01:41:38 48° SSE 01:50:19 10° E visible
02 Aug - 03:36:22 10° WSW 03:45:38 72° S 03:54:45 10° E visible
02 Aug - 05:40:50 10° W 05:49:51 61° SSW 05:58:49 10° ESE daylight
02 Aug - 07:45:39 10° W 07:53:17 31° SW 08:00:57 10° SSE daylight
02 Aug - 23:07:58 10° SSE 23:13:40 18° SE 23:19:14 10° E visible
03 Aug - 01:07:43 10° SW 01:16:33 46° SSE 01:25:09 10° E visible
03 Aug - 03:11:12 10° WSW 03:20:30 71° S 03:29:36 10° E visible
03 Aug - 05:15:40 10° W 05:24:44 63° SSW 05:33:45 10° ESE daylight
03 Aug - 07:20:25 10° W 07:28:15 33° SW 07:36:06 10° SSE daylight
03 Aug - 22:43:29 10° SSE 22:48:39 16° SE 22:53:46 10° E visible
04 Aug - 00:42:41 10° SW 00:51:27 44° SSE 00:59:59 10° E visible
04 Aug - 02:46:04 10° WSW 02:55:21 70° S 03:04:27 10° E visible
04 Aug - 04:50:29 10° W 04:59:36 65° SSW 05:08:38 10° ESE daylight
04 Aug - 06:55:12 10° W 07:03:12 35° SW 07:11:13 10° SSE daylight
04 Aug - 22:19:06 10° SSE 22:23:40 14° SE 22:28:10 10° E visible
05 Aug - 00:17:41 10° SSW 00:26:22 42° SSE 00:34:49 10° E visible
05 Aug - 02:20:54 10° WSW 02:30:13 69° S 02:39:19 10° E visible
05 Aug - 04:25:19 10° W 04:34:29 67° SSW 04:43:32 10° ESE daylight
05 Aug - 06:30:00 10° W 06:38:09 37° SW 06:46:18 10° SSE daylight
05 Aug - 08:38:11 10° WSW 08:40:35 11° WSW 08:43:00 10° SW daylight
05 Aug - 21:54:53 10° SSE 21:58:40 13° SE 22:02:26 10° E visible
05 Aug - 23:52:42 10° SSW 00:01:18 39° SE 00:09:39 10° E visible
06 Aug - 01:55:45 10° WSW 02:05:05 68° SSE 02:14:10 10° E visible
06 Aug - 04:00:09 10° W 04:09:21 68° SSW 04:18:25 10° ESE daylight
06 Aug - 06:04:47 10° W 06:13:06 40° SW 06:21:22 10° SSE daylight
06 Aug - 08:12:05 10° WSW 08:15:37 13° SW 08:19:10 10° SSW daylight
06 Aug - 21:30:57 10° SE 21:33:42 11° SE 21:36:25 10° ESE visible
06 Aug - 23:27:44 10° SSW 23:36:13 37° SE 23:44:28 10° E visible
07 Aug - 01:30:36 10° WSW 01:39:56 66° SSE 01:49:02 10° E visible
07 Aug - 03:34:58 10° W 03:44:13 69° S 03:53:18 10° ESE visible
07 Aug - 05:39:35 10° W 05:48:02 42° SSW 05:56:25 10° SSE daylight
07 Aug - 07:46:19 10° W 07:50:39 14° SW 07:55:00 10° SSW daylight
07 Aug - 21:08:24 10° SE 21:08:43 10° ESE 21:09:02 10° ESE visible
07 Aug - 23:02:47 10° SSW 23:11:09 35° SE 23:19:17 10° E visible
08 Aug - 01:05:27 10° WSW 01:14:49 65° SSE 01:23:53 10° E visible
08 Aug - 03:09:47 10° W 03:19:05 70° S 03:28:11 10° ESE visible
08 Aug - 05:14:24 10° W 05:22:58 44° SSW 05:31:26 10° SE daylight
08 Aug - 07:20:42 10° W 07:25:40 16° SW 07:30:39 10° SSW daylight
08 Aug - 22:37:52 10° SSW 22:46:05 33° SE 22:54:04 10° E visible
09 Aug - 00:40:19 10° WSW 00:49:40 63° SSE 00:58:45 10° E visible
09 Aug - 02:44:37 10° W 02:53:57 71° S 03:03:04 10° ESE visible
09 Aug - 04:49:12 10° W 04:57:53 47° SSW 05:06:27 10° SE daylight
09 Aug - 06:55:11 10° W 07:00:41 18° SW 07:06:11 10° SSW daylight
09 Aug - 22:12:58 10° SSW 22:21:02 31° SE 22:28:52 10° E visible
10 Aug - 00:15:11 10° WSW 00:24:33 61° SSE 00:33:37 10° E visible
10 Aug - 02:19:26 10° W 02:28:49 72° S 02:37:56 10° ESE visible
10 Aug - 04:24:01 10° W 04:32:48 49° SSW 04:41:27 10° SE daylight
10 Aug - 06:29:45 10° W 06:35:42 19° SW 06:41:39 10° S daylight
10 Aug - 21:48:06 10° SSW 21:55:59 29° SE 22:03:38 10° E visible
10 Aug - 23:50:04 10° SW 23:59:25 59° SSE 00:08:29 10° E visible
11 Aug - 01:54:14 10° W 02:03:40 72° S 02:12:49 10° ESE visible
11 Aug - 03:58:49 10° W 04:07:43 51° SSW 04:16:26 10° SE daylight
11 Aug - 06:04:20 10° W 06:10:42 21° SW 06:17:02 10° S daylight
11 Aug - 21:23:16 10° S 21:30:56 27° SE 21:38:23 10° E visible
11 Aug - 23:24:56 10° SW 23:34:17 57° SSE 23:43:20 10° E visible
